Theta_e
314 315 314 313 312 311 311 311 310 310 310 308 307 306 305 305 305 305 305 305 307 308 308 308 308 308 308 308 308 309 310 315 317 317 318 314 312 312 312 313 313 313 313 313 313 313 313 313 313 311 316 316 312 314 311 312 325 338 339 332 321 321 323 321 321 318 320 321 317 315 315 317 317 313 311 309 315 318 314 316 315 313 310 310 311 311 316 323
314 314 313 312 312 311 311 310 310 310 309 309 307 306 306 305 305 305 305 305 306 307 308 308 308 308 308 308 308 309 312 316 317 317 317 314 312 312 313 313 313 314 314 313 314 314 315 316 312 312 321 319 311 314 316 311 321 336 335 330 323 323 320 318 323 318 315 318 318 316 313 315 315 315 312 310 317 316 315 317 316 318 316 312 311 314 320 324
313 313 312 312 311 311 311 310 311 310 308 308 307 307 306 306 306 305 305 306 306 307 307 308 308 308 308 308 308 309 313 315 315 316 315 313 312 312 312 313 313 314 314 314 314 312 314 315 310 314 324 320 313 317 323 316 316 323 332 332 323 324 319 314 320 319 315 315 318 316 312 314 314 313 311 313 318 316 319 321 318 322 323 318 312 313 321 323
313 312 311 311 310 311 311 310 311 311 309 309 307 307 307 306 306 305 306 306 306 307 307 308 307 308 308 308 309 309 313 314 313 313 313 312 312 312 312 313 314 315 315 314 314 313 313 312 310 317 321 319 321 322 321 317 315 317 325 326 318 320 318 315 317 319 317 313 317 318 313 315 312 311 312 314 316 316 321 322 319 324 327 323 314 311 317 320
311 311 310 310 310 310 311 310 310 311 311 311 308 307 307 306 306 306 307 306 307 307 306 307 307 308 308 308 309 309 313 314 312 312 312 313 312 312 313 312 314 315 314 314 314 313 311 310 314 323 322 320 327 325 317 313 315 316 315 316 316 317 315 316 317 316 316 313 316 318 313 314 311 312 316 315 316 319 320 317 317 320 322 321 314 310 313 315
310 310 310 309 309 310 310 310 310 311 311 311 309 307 307 306 306 306 306 307 307 306 307 307 307 308 308 309 310 309 312 312 311 313 313 312 313 312 312 312 314 315 314 314 313 312 315 316 319 327 325 321 321 320 316 311 313 318 315 313 316 316 314 316 316 315 316 315 317 317 313 313 313 313 315 314 315 316 312 311 312 311 312 313 311 309 313 313
310 309 309 309 309 309 308 309 310 310 310 310 309 308 306 306 306 306 306 307 307 307 307 307 307 308 309 309 310 312 314 312 311 314 314 312 313 312 312 313 315 315 314 313 313 315 320 323 322 324 324 320 316 316 316 314 317 323 318 315 315 314 315 315 315 316 316 317 317 315 312 313 317 314 311 313 317 315 309 306 305 305 306 309 311 311 310 310
310 309 309 309 309 309 308 308 308 309 309 310 309 307 307 307 306 306 306 306 307 307 307 308 308 308 309 310 313 317 315 314 314 316 314 312 313 312 312 314 315 315 314 312 313 315 318 320 319 319 321 317 314 316 314 315 321 323 317 317 316 314 317 315 315 317 316 315 313 313 314 315 316 312 311 317 319 315 310 307 305 306 308 311 316 314 306 307
310 309 309 309 308 308 306 306 307 307 308 309 308 307 307 306 307 306 306 306 306 307 308 309 310 310 310 309 313 316 313 314 316 316 314 312 313 312 312 314 315 315 314 313 312 312 314 317 317 316 318 316 314 316 316 316 318 318 317 319 317 316 318 315 315 318 316 315 313 313 317 316 313 311 314 320 317 312 311 311 311 312 315 317 318 312 305 306
310 309 309 308 308 307 306 306 306 306 308 309 308 307 307 306 307 307 307 306 306 307 308 309 310 311 311 309 312 313 313 315 317 316 313 313 312 312 313 315 315 315 313 313 312 311 313 315 313 312 316 317 315 314 314 316 315 316 319 318 317 319 319 315 315 317 316 315 314 314 317 316 312 312 316 318 312 310 315 316 312 315 319 317 317 311 306 306
310 309 309 309 308 307 307 308 307 307 308 309 308 307 306 306 306 307 307 307 307 308 309 310 311 311 311 312 314 314 315 317 316 315 313 313 312 312 314 315 315 315 314 313 312 312 312 311 309 310 315 314 314 315 313 313 313 314 318 316 318 322 319 315 315 315 313 313 315 314 315 315 312 313 318 315 309 310 319 319 312 316 318 314 315 311 306 305
310 310 310 309 309 308 308 309 308 308 309 309 308 307 306 306 306 306 307 308 308 309 310 310 311 312 310 311 314 315 316 318 316 315 313 312 313 313 314 315 315 316 315 313 312 312 312 311 312 315 316 313 315 316 313 313 313 314 317 317 321 327 321 314 314 313 312 314 316 314 314 317 314 315 317 312 307 310 316 319 314 315 316 313 313 311 306 305
310 310 310 309 310 309 309 309 309 310 310 309 308 307 307 307 307 307 307 308 309 309 311 311 312 313 310 311 313 314 316 317 315 314 313 313 313 314 315 315 315 315 314 312 312 312 312 312 313 316 315 317 318 312 314 316 314 316 316 318 324 328 323 314 312 312 312 314 315 313 317 326 325 318 315 310 309 312 315 318 315 314 314 313 311 311 309 304
309 309 310 310 310 310 310 310 310 310 310 309 308 308 307 307 308 308 308 309 310 310 311 311 312 311 309 311 312 313 315 316 315 314 313 313 313 314 315 315 315 314 313 313 313 312 312 311 312 314 312 316 315 309 321 326 322 320 313 323 328 319 323 320 314 314 312 313 313 313 318 326 329 322 314 309 309 313 317 317 314 314 314 312 311 311 311 305
310 309 310 310 310 309 310 310 309 310 310 309 308 307 307 307 308 309 309 310 310 311 311 312 312 311 312 312 311 313 314 315 316 314 313 314 314 315 314 314 314 313 313 313 313 313 312 312 315 318 312 312 314 316 329 328 328 327 313 326 330 317 329 330 315 315 315 312 311 313 319 322 322 319 312 308 309 312 316 316 312 314 313 312 311 309 310 306
311 310 310 310 310 310 310 310 309 309 309 308 307 308 308 308 309 310 311 311 311 311 311 312 311 311 313 312 312 314 314 315 316 314 314 314 314 315 313 313 312 312 313 312 314 313 312 316 315 313 313 314 322 333 338 327 331 332 317 323 329 320 328 327 315 315 315 313 312 312 319 323 321 317 311 307 309 311 314 315 313 313 312 311 310 308 309 308
312 312 311 311 311 311 311 311 309 308 308 307 307 310 310 310 311 312 313 312 313 312 311 311 309 308 310 310 313 316 314 315 315 314 314 314 314 314 312 312 311 311 313 312 313 314 312 317 313 311 318 321 324 335 333 324 327 328 319 320 327 323 322 323 321 316 311 313 314 313 316 319 320 317 313 310 309 311 315 316 314 311 310 309 309 308 308 308
313 313 312 312 312 312 311 311 310 308 307 307 309 312 312 312 313 313 314 313 312 310 310 311 308 310 311 309 313 315 313 314 315 314 314 314 313 313 313 311 309 310 317 316 313 315 315 318 319 319 324 322 323 328 324 326 329 325 324 324 324 321 318 323 327 317 311 314 315 315 315 316 317 315 315 314 310 312 317 314 311 310 309 309 308 308 307 307
314 313 313 313 312 312 311 311 311 309 307 308 312 314 312 312 314 315 314 312 311 309 310 313 311 314 313 311 313 313 313 314 314 314 313 313 312 312 313 310 312 315 318 319 314 315 319 322 323 322 322 322 321 323 323 330 330 326 333 336 330 324 322 325 327 320 313 313 316 317 316 317 316 315 315 315 311 312 314 311 309 310 309 309 308 307 306 306
314 314 313 313 312 312 312 311 311 309 307 310 314 311 310 313 313 313 314 315 315 311 313 316 313 313 312 312 315 313 313 314 313 314 313 312 312 313 312 311 319 321 318 323 317 314 320 322 323 324 325 326 322 319 321 325 325 326 331 333 328 324 326 327 324 320 314 313 320 319 315 316 315 315 314 313 312 313 313 312 310 309 308 308 308 307 307 306
315 314 313 313 312 312 312 311 311 309 307 312 313 308 310 314 311 310 314 316 312 308 313 316 310 310 311 311 314 312 314 316 313 313 313 312 313 312 314 315 320 320 319 323 318 314 320 322 323 324 321 320 319 318 320 321 323 327 326 323 324 324 326 324 318 318 315 315 322 321 316 316 314 314 313 312 313 314 314 314 312 310 308 308 308 307 307 305
314 314 314 313 313 313 312 311 311 309 308 312 312 309 312 313 310 310 312 314 312 308 312 314 310 312 311 310 313 312 316 320 316 314 313 311 312 312 316 319 319 319 318 318 318 318 321 323 321 319 316 317 317 315 318 321 322 328 326 319 323 325 323 322 319 317 315 314 323 325 319 316 315 315 314 313 313 311 311 312 312 311 310 308 308 307 307 307
314 313 313 313 313 312 312 311 311 309 309 312 311 311 314 314 313 312 310 314 316 312 313 314 313 316 315 311 313 314 316 321 319 317 313 311 314 314 315 320 319 320 318 317 321 321 322 324 320 316 317 320 319 314 316 319 320 325 325 322 326 325 321 322 321 318 316 314 319 325 320 316 316 316 316 315 315 314 312 312 311 310 311 310 308 308 307 307
314 313 312 313 312 312 311 310 311 310 309 311 310 311 315 315 314 313 312 314 315 314 314 313 312 316 318 312 312 316 316 317 319 316 313 312 315 314 314 319 320 320 318 318 321 319 321 321 314 313 317 322 323 317 317 319 321 324 323 323 327 326 323 323 322 321 321 318 318 322 323 323 323 321 319 319 319 319 313 313 313 311 309 309 308 309 308 307
313 313 312 312 312 312 310 310 311 310 309 310 311 311 315 315 313 312 312 313 312 314 312 309 310 314 315 311 312 317 315 315 318 315 311 312 314 313 313 317 318 319 318 317 317 317 319 315 313 316 315 320 324 321 323 324 324 327 324 323 323 324 323 321 321 322 325 328 320 317 324 334 334 329 327 326 328 329 319 316 319 314 310 309 308 309 309 307
314 313 312 313 313 311 310 311 311 310 310 310 310 312 315 314 313 310 312 315 313 314 312 309 312 313 311 312 315 315 314 314 313 312 311 311 312 313 314 315 314 317 318 316 316 317 317 313 317 323 318 319 320 320 326 323 322 326 323 320 318 318 319 319 321 322 327 331 318 315 326 331 328 326 328 331 334 332 322 320 321 316 313 312 309 309 309 307
314 313 312 313 312 310 311 313 311 310 313 312 308 311 314 314 313 309 311 316 313 313 315 312 311 310 311 313 312 311 313 314 311 310 311 311 312 312 315 316 313 315 316 316 317 316 317 315 317 323 322 321 319 322 324 318 323 328 319 319 319 317 319 321 320 321 326 327 319 321 329 326 324 325 327 328 327 326 324 324 322 317 318 316 310 308 308 306
316 314 313 312 311 310 311 312 311 310 312 311 308 311 315 314 312 310 312 314 312 312 314 313 309 310 312 310 311 313 313 313 314 313 310 310 312 312 316 317 314 316 316 316 317 314 316 320 318 318 322 322 322 325 322 317 323 325 315 317 320 319 323 325 326 326 324 324 323 323 323 324 329 330 326 322 322 326 329 326 322 322 326 322 313 308 306 305
317 315 313 312 311 310 311 312 311 310 311 310 309 312 315 313 310 312 313 311 312 313 313 313 310 311 313 310 312 316 314 314 316 314 310 310 311 313 315 316 316 316 314 314 316 314 314 317 316 317 320 321 323 320 316 317 321 317 312 316 319 321 324 326 330 330 326 326 327 325 323 324 327 329 327 322 324 329 326 323 322 325 328 322 313 307 306 304
318 317 315 313 312 310 311 313 311 310 311 311 311 314 315 313 311 309 310 310 313 315 312 312 313 313 314 311 312 315 314 316 315 313 314 313 313 315 313 313 317 320 316 314 317 317 315 311 312 317 318 319 321 315 312 319 319 314 319 325 325 326 326 328 329 326 327 329 328 326 325 323 324 330 330 325 326 327 323 327 329 325 327 324 313 307 306 304
318 318 316 313 312 311 311 313 312 311 312 311 314 315 313 316 315 309 309 310 311 315 313 313 313 313 314 312 313 315 315 316 314 313 315 314 315 318 315 313 318 323 320 317 318 318 316 315 316 317 316 317 322 319 314 314 313 319 331 331 327 329 327 328 328 325 329 329 324 320 320 320 323 328 330 327 325 323 321 328 332 329 330 330 318 307 304 303
319 319 317 314 313 311 311 313 312 311 313 313 315 314 310 314 314 310 312 310 311 316 317 317 315 314 314 313 313 315 316 317 314 314 317 316 316 316 315 316 317 319 319 318 318 318 317 321 320 316 313 317 325 325 318 315 314 322 331 327 326 329 327 328 328 326 327 324 316 315 318 320 321 323 324 325 326 326 321 319 324 328 328 329 321 308 303 302
319 319 318 315 314 312 311 313 312 312 314 314 314 316 315 315 312 311 313 312 313 316 317 320 318 314 314 314 315 314 315 317 314 315 317 317 316 315 316 318 317 319 322 317 316 318 320 320 318 315 316 319 322 322 322 321 319 322 326 326 327 328 330 337 332 323 322 321 314 313 318 321 322 323 321 320 320 324 322 316 317 320 319 320 317 308 302 301
319 318 318 316 315 314 313 312 312 313 315 315 314 316 318 314 311 312 311 311 317 318 319 320 315 313 314 316 317 314 314 316 314 316 317 316 317 317 317 318 315 321 327 319 315 319 319 319 318 317 318 319 318 317 323 324 319 320 323 323 326 329 334 339 336 328 325 325 318 314 319 327 330 326 320 318 320 322 322 318 314 314 312 310 309 305 303 301
318 318 317 316 315 315 314 312 312 314 314 316 316 313 313 311 310 312 311 312 321 322 319 316 315 315 316 317 318 314 314 316 314 315 317 316 317 316 316 316 314 319 324 318 317 319 317 319 322 317 316 318 317 319 323 322 318 319 320 321 324 326 329 325 322 322 323 325 323 319 322 327 327 323 318 318 321 322 321 317 315 316 311 307 309 307 303 301
317 318 317 316 315 315 314 312 313 314 314 317 317 313 312 312 313 314 313 315 322 322 317 317 319 318 316 317 318 314 314 317 316 316 317 317 318 317 316 315 314 315 315 314 320 321 318 320 318 315 317 316 315 318 320 319 318 318 319 323 320 318 327 327 317 313 315 320 325 322 324 326 323 323 320 318 322 323 320 319 319 318 313 311 313 308 303 301
317 316 316 316 315 316 314 312 313 314 314 315 314 313 313 315 318 318 317 317 317 317 318 318 319 319 317 317 319 317 316 318 317 317 318 317 318 318 316 316 315 313 313 315 321 322 321 322 317 315 318 313 309 316 318 315 317 321 323 324 317 314 325 328 322 322 322 325 327 323 324 326 323 323 321 317 319 321 321 323 321 316 315 317 313 306 302 301
317 316 316 316 315 316 314 313 314 314 314 314 313 314 314 315 319 321 321 319 316 316 319 317 316 319 319 318 319 317 315 318 317 316 318 316 316 318 316 316 317 313 313 316 318 319 319 319 318 313 316 314 311 316 320 314 312 319 323 321 320 324 327 323 324 329 329 328 330 326 322 321 321 323 323 319 322 324 321 321 319 318 320 317 310 306 303 300
316 316 317 316 315 316 314 313 314 314 314 314 313 316 316 315 318 322 323 320 317 317 317 316 316 319 320 318 319 318 315 317 317 316 318 317 316 318 315 315 317 314 313 314 315 320 319 316 320 313 311 315 315 317 322 318 313 315 317 315 319 325 325 323 323 325 327 327 329 328 323 322 322 323 325 322 324 329 325 321 321 319 319 316 310 307 304 301
315 316 318 316 315 316 313 313 315 315 314 313 313 316 318 316 315 318 320 319 317 316 315 318 321 321 320 317 318 319 317 317 316 315 318 317 316 318 315 314 318 316 314 313 314 320 318 314 320 317 311 315 320 320 320 320 317 317 319 318 319 319 319 323 321 320 326 329 330 330 325 324 326 324 326 324 323 326 326 326 327 321 316 316 312 307 304 301
315 317 317 315 315 315 313 314 317 317 313 312 312 313 315 315 315 316 317 317 318 317 317 321 322 320 320 318 318 319 318 318 317 316 318 317 316 319 316 315 320 317 314 314 314 318 318 317 322 323 317 319 323 318 314 316 317 318 319 319 319 318 319 323 321 319 322 324 327 328 324 325 328 323 323 324 322 321 320 321 327 326 321 318 313 306 303 302
315 317 316 314 314 314 313 315 318 316 312 311 312 311 312 315 316 317 315 315 317 317 318 322 322 319 320 318 318 319 318 319 318 317 319 317 315 318 317 315 318 316 314 316 316 316 321 322 324 325 321 319 318 311 307 312 315 315 318 320 319 318 320 323 323 322 321 319 320 321 323 324 323 320 321 324 323 321 321 319 324 328 325 317 311 305 301 301
314 315 314 313 314 313 315 316 315 314 312 311 311 311 312 315 316 316 316 315 315 317 318 321 321 318 318 319 319 319 319 319 317 317 321 319 316 318 320 317 316 315 315 318 318 318 320 321 320 323 323 319 316 311 308 310 313 315 318 320 319 318 319 322 322 321 324 324 320 320 324 322 318 318 319 321 319 317 320 320 322 326 324 314 310 307 302 301
314 314 313 313 313 313 315 315 313 312 311 310 311 312 312 314 315 315 316 315 315 317 318 319 320 318 319 321 320 318 318 319 318 317 318 319 317 317 319 319 316 315 316 318 318 316 318 320 320 322 323 321 319 318 315 313 314 318 321 319 318 318 318 320 320 319 322 325 322 322 325 320 318 319 318 318 319 318 319 318 317 322 322 315 312 308 302 301
314 314 313 313 313 314 316 315 312 312 311 310 311 312 312 313 314 315 315 315 315 317 317 319 320 320 320 320 318 317 318 318 319 318 317 319 319 315 316 318 317 315 316 319 319 315 319 322 318 318 321 320 320 322 321 318 316 319 322 319 316 317 318 319 320 320 321 322 321 322 323 320 321 321 317 317 320 321 322 321 316 315 315 313 312 309 303 300
313 313 313 313 313 313 315 315 313 312 311 310 311 311 312 313 314 314 315 316 317 316 317 320 321 320 320 320 318 319 319 318 320 320 318 320 320 316 315 315 315 315 317 319 320 320 325 325 318 317 320 319 318 321 321 320 319 319 321 319 316 316 317 318 319 321 321 322 321 320 320 321 322 322 321 321 322 323 324 323 320 318 316 312 310 307 303 300
312 312 314 314 314 314 315 315 315 313 311 311 311 311 312 312 314 314 314 315 317 316 316 319 319 319 321 321 320 321 320 318 319 320 319 319 319 316 313 312 314 315 316 317 318 322 326 324 319 320 319 317 319 321 320 320 321 321 320 319 317 316 316 318 319 320 322 323 322 320 319 321 320 321 324 325 325 325 326 325 323 323 322 314 307 306 304 301
311 312 313 314 315 315 315 315 316 314 312 312 311 311 311 312 313 315 315 315 317 317 317 318 319 319 320 320 320 322 321 320 320 319 319 320 320 318 315 314 313 314 315 315 316 321 324 322 321 322 320 318 319 320 321 322 320 320 319 319 318 316 316 317 318 319 320 322 322 321 323 323 319 318 321 323 325 325 323 322 318 317 317 313 310 310 307 303
309 311 313 313 313 314 315 315 316 315 314 313 311 310 311 312 312 314 315 315 316 317 317 317 317 317 318 319 319 320 321 321 321 320 319 320 321 321 320 319 316 313 314 315 315 319 322 320 320 321 320 321 320 319 322 322 319 318 319 318 318 317 316 316 317 317 319 320 320 321 323 322 319 318 319 319 322 322 318 317 315 314 317 318 317 315 311 306
307 308 311 311 312 314 315 315 315 316 315 313 312 311 311 312 312 312 314 315 316 316 317 317 317 317 318 318 318 319 320 320 321 321 320 319 319 319 320 321 319 314 313 315 316 316 318 320 321 320 320 321 320 319 321 320 318 319 320 319 317 316 316 316 316 317 317 318 318 319 321 320 318 320 321 319 319 319 317 318 317 316 318 318 317 315 313 307
304 304 305 308 311 313 314 314 314 315 315 314 313 313 312 312 312 312 313 314 315 315 316 317 317 317 317 318 318 319 319 319 320 320 319 319 318 318 318 318 320 318 314 314 317 316 316 319 321 320 321 321 320 320 320 317 316 317 319 319 318 316 315 315 316 316 317 318 318 318 320 319 318 321 322 321 320 319 318 318 318 316 315 315 315 315 313 308
303 302 303 305 308 309 311 313 313 314 315 314 313 313 313 313 312 312 313 314 314 315 315 316 316 317 318 318 318 318 318 319 319 320 321 320 319 320 319 317 319 321 317 314 316 316 316 318 319 319 321 321 321 322 319 316 317 319 319 318 317 316 315 315 316 316 316 317 319 319 319 318 319 322 322 321 321 320 318 318 317 316 314 312 312 312 311 309
Wind_Speed
7 7 9 5 2 3 3 4 4 4 4 4 5 5 5 5 6 6 6 6 6 5 4 4 3 3 4 4 5 6 6 2 2 2 1 0 2 3 5 6 7 8 5 5 5 1 1 6 8 7 4 4 5 3 3 3 3 5 4 4 3 4 4 6 7 7 4 3 5 4 2 7 3 2 2 0 5 4 1 3 2 4 2 1 1 0 5 12
8 7 7 4 3 3 3 4 4 5 5 5 5 5 5 5 6 6 6 6 6 5 4 4 3 4 4 4 5 6 5 1 1 2 2 2 2 3 5 7 7 8 6 5 7 5 3 4 6 7 6 4 4 3 3 2 4 4 4 4 3 6 5 6 8 7 3 2 5 3 1 5 5 3 2 1 3 4 1 3 4 5 4 1 1 3 9 13
8 8 7 5 4 4 4 4 4 4 5 4 5 5 5 5 6 6 6 6 5 5 4 4 4 4 3 4 5 5 3 1 2 1 3 4 3 3 5 6 7 7 7 6 6 5 4 1 2 5 5 4 3 3 4 4 3 2 4 4 4 6 3 4 7 7 4 3 6 3 1 2 3 2 1 2 1 1 3 5 1 3 7 5 2 5 10 12
8 7 7 5 5 4 3 4 4 4 3 4 5 5 5 6 6 6 5 5 5 4 4 4 4 3 3 4 4 4 1 3 1 2 5 4 3 2 4 6 7 7 6 5 4 4 4 4 5 6 5 3 4 4 4 4 1 2 4 3 5 4 1 4 6 6 4 4 6 4 4 1 3 2 1 5 3 4 7 7 7 8 8 8 5 5 10 11
8 6 6 5 5 5 4 4 4 4 3 3 5 6 6 6 6 5 5 5 4 4 4 4 3 2 3 4 3 4 3 4 1 3 5 5 3 1 4 6 7 6 6 5 3 4 4 5 7 7 5 3 5 5 3 3 2 3 2 3 4 3 1 3 5 5 4 4 5 5 4 2 1 1 3 8 5 6 6 6 8 8 8 9 8 7 9 10
8 6 6 6 5 5 5 5 4 4 4 4 5 6 6 6 5 5 5 4 4 4 3 3 3 2 2 3 3 3 3 2 3 3 6 5 3 1 4 7 7 6 6 5 3 3 4 5 7 5 4 4 3 4 1 5 2 3 1 1 3 3 0 1 3 4 5 6 5 4 3 2 3 2 2 7 8 7 5 5 7 7 7 11 11 10 8 8
9 8 6 6 5 5 5 5 4 5 5 5 5 5 6 5 5 5 5 4 4 4 3 3 2 2 2 2 2 3 3 1 3 5 7 5 3 1 5 7 6 6 5 5 5 4 4 7 6 3 4 4 0 2 1 5 4 6 2 1 1 3 2 2 2 3 4 5 4 3 2 2 3 3 0 4 9 4 3 3 3 5 9 13 10 8 8 8
9 8 7 6 5 5 4 4 5 6 5 5 5 5 6 5 5 5 4 4 3 3 3 2 1 1 1 0 1 4 2 3 2 6 8 5 3 1 4 5 6 6 7 9 6 3 4 6 4 4 4 2 3 2 2 3 6 5 3 2 1 1 4 3 3 3 2 1 1 3 2 3 5 3 1 7 9 1 1 3 6 8 10 9 8 7 7 8
9 8 8 6 5 5 5 4 4 5 5 4 4 5 5 5 5 4 4 4 3 3 2 1 1 0 0 1 5 3 3 3 1 6 8 6 3 1 4 5 6 6 8 10 7 4 2 2 3 3 4 2 4 2 3 3 2 1 3 2 1 2 5 2 2 2 2 1 2 3 2 5 2 1 4 8 6 2 4 6 5 7 7 6 5 6 7 8
9 8 8 6 5 4 4 2 2 4 4 3 4 4 5 5 5 4 5 4 4 3 2 2 1 1 2 2 6 1 4 3 1 6 7 6 3 1 4 5 7 7 8 8 9 8 3 4 4 4 6 3 3 2 2 3 2 2 4 3 3 2 4 2 1 2 2 2 1 4 4 5 4 2 5 5 3 4 6 6 3 5 6 5 4 4 6 7
8 8 7 6 5 4 3 2 2 3 3 3 3 4 5 5 5 5 5 5 4 4 3 2 2 2 2 4 5 3 3 3 1 5 6 6 3 1 4 5 6 7 7 8 9 8 5 6 6 5 3 2 2 3 2 2 3 2 4 3 4 5 3 1 1 2 0 1 4 6 3 4 4 1 7 4 3 4 6 6 3 4 4 3 4 3 5 6
10 9 7 6 5 4 3 3 3 2 2 2 2 3 4 5 6 6 6 5 5 4 4 3 3 3 2 4 3 5 2 2 1 4 6 5 3 2 4 5 6 7 5 7 7 7 6 5 7 5 0 3 3 2 1 2 3 1 3 2 5 8 3 1 0 1 2 2 4 6 2 4 3 7 8 3 3 4 5 6 4 4 3 2 3 3 4 6
11 9 7 7 6 5 4 3 2 2 2 0 1 2 3 4 5 6 6 6 6 5 5 4 3 4 3 1 2 3 2 0 1 4 6 5 4 4 4 4 6 7 7 8 6 7 6 3 6 7 2 5 2 0 3 4 3 1 3 3 3 7 5 2 2 1 3 2 2 4 2 6 8 11 7 1 6 6 5 6 5 5 4 3 4 3 4 6
9 9 8 6 6 5 4 3 3 2 2 1 1 2 3 4 5 5 6 6 6 5 4 4 4 4 4 1 3 2 3 2 2 5 6 6 6 6 5 5 6 7 8 9 8 9 8 5 8 8 3 4 2 1 4 6 4 1 2 2 3 2 4 5 2 3 5 2 2 4 3 6 9 10 4 2 6 7 7 7 5 6 5 4 4 4 5 6
8 9 8 7 6 4 2 2 2 1 0 0 0 1 3 4 4 5 6 5 5 5 4 4 4 4 3 2 2 1 3 3 4 5 5 6 6 6 5 5 6 7 8 9 9 9 8 5 7 6 1 2 3 4 4 4 4 3 1 3 3 1 5 8 2 5 4 1 2 4 3 7 9 9 5 2 5 6 7 7 6 7 6 5 5 5 5 5
9 7 7 6 5 2 1 1 2 2 1 1 1 2 4 5 5 5 6 5 5 5 4 4 3 5 3 2 1 1 2 3 5 6 6 6 6 6 7 7 6 7 7 7 7 6 8 7 5 3 1 2 5 5 4 4 4 4 1 2 2 1 3 6 2 2 1 1 1 1 3 4 4 5 5 0 6 5 6 7 7 8 7 6 5 5 5 5
8 5 3 4 3 2 1 1 2 2 1 1 2 4 5 5 6 7 7 8 7 5 5 4 4 4 1 1 1 2 1 4 6 8 8 6 6 8 8 6 5 7 7 6 5 4 8 7 1 1 3 3 3 4 4 3 3 4 2 1 3 2 2 3 3 3 1 2 2 2 3 6 7 6 3 1 6 6 7 10 9 7 7 6 5 6 6 6
8 6 4 3 3 2 2 1 1 1 1 2 5 7 8 8 8 8 10 10 9 7 5 3 4 3 2 2 2 2 2 5 8 9 9 8 8 9 8 5 5 7 7 6 5 4 4 4 2 2 3 3 3 5 3 4 3 3 2 1 2 2 3 4 4 2 1 1 3 3 4 10 13 11 6 5 6 7 10 10 7 7 7 7 7 7 7 7
9 7 6 5 4 4 3 1 1 1 1 4 8 11 11 9 8 7 7 7 5 4 2 3 3 4 3 2 1 3 6 7 9 8 8 10 9 10 9 7 6 6 5 2 3 3 2 3 4 2 1 2 3 6 7 7 6 6 5 4 4 3 3 5 5 5 2 1 4 6 7 10 12 12 9 5 6 7 10 8 7 7 7 7 8 7 8 9
10 9 8 7 6 5 3 2 2 3 3 7 12 11 7 5 5 1 1 1 4 4 2 3 3 3 1 1 3 8 9 7 5 5 8 10 11 11 7 6 7 6 3 3 0 2 3 4 1 5 6 7 8 7 5 5 6 6 5 4 4 3 4 5 3 5 2 2 6 7 8 10 10 12 12 4 5 7 10 10 10 9 9 9 9 9 10 9
11 10 9 9 7 5 4 3 2 4 5 11 13 7 3 4 3 1 3 3 6 3 2 1 1 1 0 2 7 9 6 4 3 3 9 9 10 9 1 4 5 3 1 2 2 2 5 3 7 9 8 6 5 5 7 6 6 5 5 3 1 3 5 6 2 4 2 2 5 4 5 11 10 11 13 6 5 9 11 12 13 13 11 9 10 11 10 6
12 11 10 10 8 6 5 3 3 5 8 12 10 3 2 5 5 3 3 1 7 5 4 1 2 2 1 2 7 6 3 3 2 2 8 8 5 5 1 4 6 3 1 1 2 3 3 4 11 7 5 5 4 5 7 6 5 4 3 3 2 3 4 6 3 4 2 2 4 5 5 9 10 10 13 12 10 10 11 13 13 12 11 11 11 11 9 7
13 12 11 10 9 7 6 5 4 5 8 11 8 5 4 5 7 4 3 2 4 3 4 4 3 4 2 0 7 7 2 4 4 4 9 8 3 3 5 5 5 4 2 3 5 3 2 6 9 5 8 7 6 5 7 6 3 2 4 3 3 3 1 4 4 4 3 1 2 5 7 9 8 9 13 13 10 9 10 11 10 9 11 12 11 10 10 10
14 13 13 11 10 9 8 6 5 6 9 11 10 8 7 7 7 3 2 2 3 4 2 5 4 5 5 3 9 10 2 3 5 5 11 10 5 3 5 5 5 5 4 7 8 6 5 6 1 5 7 7 6 4 6 5 2 3 4 5 4 4 5 5 4 4 3 3 3 4 7 8 5 7 10 7 4 7 9 8 11 11 10 9 6 7 10 11
13 13 14 13 12 11 8 6 6 7 9 9 11 11 10 9 7 4 2 3 3 5 3 3 2 5 9 6 10 9 2 2 4 6 13 13 8 4 3 3 4 4 6 5 6 4 7 5 4 6 3 5 7 4 5 7 3 4 4 9 9 7 5 3 4 5 4 4 4 4 4 7 4 4 9 6 4 7 5 4 11 12 7 6 7 7 8 9
14 13 14 14 13 12 9 5 8 10 7 6 11 14 12 9 8 6 4 4 3 4 1 3 3 6 10 7 8 6 2 4 4 5 13 13 8 5 3 2 2 4 6 5 3 3 4 2 5 6 5 5 5 3 6 7 5 3 4 7 8 5 4 2 1 2 1 4 3 3 1 6 6 4 8 6 6 10 8 7 12 10 5 7 8 7 7 8
16 15 15 15 15 15 10 4 9 11 5 5 12 17 13 10 9 5 4 4 4 3 4 2 1 5 8 8 9 8 2 5 1 5 8 9 5 4 4 5 2 2 4 4 1 3 4 3 3 6 6 5 5 3 6 8 7 3 4 4 6 6 5 4 4 2 3 3 4 2 4 3 8 6 6 4 5 10 12 13 13 7 6 8 8 8 8 9
19 18 16 15 16 18 10 6 14 12 4 6 16 19 15 12 9 4 4 0 4 3 4 1 1 3 3 5 7 5 2 2 4 2 1 5 4 4 3 7 6 6 4 6 4 4 4 6 7 7 5 4 5 5 7 10 6 4 2 6 6 6 5 5 5 2 1 3 4 1 4 2 8 6 4 4 2 8 14 15 11 6 6 8 8 8 7 7
21 20 19 16 15 18 10 5 13 12 6 11 20 21 17 13 7 4 5 3 2 1 2 1 3 1 2 4 2 2 2 2 2 2 2 4 2 4 4 7 6 7 3 3 5 3 1 5 7 7 5 6 4 1 5 8 4 3 5 7 6 6 5 5 4 3 3 3 5 6 6 3 6 4 1 2 2 8 12 11 8 6 6 6 6 6 5 6
21 22 22 18 16 20 14 8 13 12 8 15 22 22 17 9 4 4 2 4 1 1 0 1 2 1 6 8 1 2 3 2 0 2 3 1 2 6 2 3 6 6 0 2 2 3 2 1 2 3 4 5 4 3 1 3 5 6 6 7 6 5 5 4 2 4 2 5 6 7 10 6 5 4 4 4 4 7 7 7 6 6 6 5 5 5 6 6
24 23 25 24 21 23 15 8 14 14 10 17 23 20 12 4 3 5 5 2 1 1 2 1 1 4 10 11 4 2 2 2 1 4 3 1 2 4 1 2 4 4 2 4 3 4 4 1 2 1 2 4 6 5 4 3 4 5 5 5 4 3 4 4 4 4 1 6 5 3 4 5 6 6 4 6 7 6 6 6 6 6 6 5 4 5 6 6
27 25 27 28 24 25 18 7 14 17 13 21 23 12 6 3 1 5 5 0 0 3 5 3 3 6 9 7 4 5 4 1 2 5 5 4 4 5 4 5 5 3 2 6 3 3 2 4 3 1 1 4 6 5 4 4 2 4 5 6 4 2 3 3 3 0 3 6 3 2 1 3 8 8 7 11 12 9 9 8 8 8 7 6 4 5 5 6
30 28 29 32 28 29 24 10 13 19 19 24 17 5 4 4 5 9 7 3 2 2 3 4 2 5 9 6 3 4 3 2 4 4 2 4 5 6 4 4 6 4 2 5 3 1 3 5 2 2 1 3 7 6 2 1 2 4 5 6 4 2 1 2 3 2 4 5 3 2 1 3 5 5 10 17 16 11 8 8 8 8 8 6 4 5 5 6
30 31 31 35 32 31 28 15 15 23 25 21 10 4 5 6 8 11 10 6 1 2 3 4 5 5 6 4 3 5 3 2 5 4 2 4 5 6 5 6 6 3 3 4 3 5 5 6 4 7 3 6 10 8 5 6 5 5 4 5 5 5 5 4 4 4 5 3 3 3 2 4 3 3 7 11 10 8 7 6 6 7 7 4 2 4 6 7
25 34 34 34 34 33 30 22 19 27 24 13 6 6 9 9 8 9 9 5 1 2 3 3 6 6 3 2 3 4 4 2 3 4 3 5 5 7 6 8 10 6 5 4 2 3 5 7 5 3 2 7 9 3 5 8 3 3 2 4 3 5 5 2 3 5 2 3 3 2 4 5 4 6 8 7 6 8 7 6 5 7 5 2 3 5 6 7
17 29 31 30 34 36 34 27 24 29 20 7 6 9 10 11 8 7 6 5 5 6 6 3 4 5 5 1 1 4 1 2 4 3 3 3 3 5 7 7 10 11 8 7 3 2 3 5 5 3 3 2 4 1 3 3 3 2 3 3 4 4 6 4 2 1 3 2 4 2 4 5 3 8 9 6 8 8 7 7 7 7 2 3 6 6 7 8
13 19 21 24 32 38 37 31 28 28 15 6 8 10 8 10 6 4 4 4 6 9 9 4 3 5 6 3 4 6 2 2 4 4 3 2 3 6 8 5 7 14 12 6 2 3 4 3 4 2 1 2 1 2 4 3 3 5 4 6 3 2 3 4 1 3 3 3 5 1 5 5 2 6 5 0 6 10 9 9 8 5 3 5 7 6 7 8
11 10 13 22 34 38 37 36 31 22 9 5 10 10 8 9 3 4 4 4 6 7 7 7 5 5 6 6 5 7 6 3 5 5 3 3 5 6 10 5 5 13 12 4 1 3 3 2 4 2 3 3 4 2 2 4 2 4 4 4 4 2 2 2 2 2 1 3 5 3 4 4 6 6 2 3 9 11 11 11 8 8 8 8 7 6 7 7
8 4 5 18 32 35 38 38 28 14 6 8 12 10 8 9 3 2 3 4 5 6 7 7 4 3 5 7 5 6 8 7 7 7 4 5 5 5 11 9 5 9 12 8 4 2 2 3 3 2 2 2 3 2 4 1 2 3 1 2 2 2 3 3 3 3 3 2 3 3 4 5 7 7 6 9 11 11 11 9 8 11 11 7 7 7 8 8
6 2 2 14 29 34 39 34 17 7 6 7 9 7 3 4 1 1 3 2 2 4 5 5 5 5 5 5 4 5 7 6 8 7 5 6 6 5 7 9 4 5 9 9 7 2 2 3 4 3 3 1 3 4 7 9 6 3 3 4 3 1 2 1 1 2 4 3 2 2 6 9 6 5 9 11 10 11 10 8 9 10 8 7 8 8 7 8
4 3 2 14 30 35 33 19 6 5 6 4 6 5 2 0 1 3 4 1 2 1 3 4 6 6 5 5 3 4 5 4 6 6 4 6 7 5 5 8 9 7 7 7 8 5 3 3 3 2 1 4 5 4 4 7 6 5 5 7 7 5 4 2 2 1 3 2 4 3 7 12 5 4 7 8 7 8 8 7 8 7 7 8 7 8 8 8
3 4 2 16 35 36 22 8 4 5 4 3 5 3 2 1 1 2 4 1 2 2 0 2 3 4 5 5 4 5 6 5 6 6 5 7 9 6 5 5 10 12 9 6 6 4 3 3 3 3 4 5 5 2 1 2 2 3 1 3 4 4 4 5 4 4 2 2 2 4 4 11 3 3 5 5 5 5 5 5 8 8 7 7 6 6 7 7
3 3 2 18 38 33 14 6 6 5 3 3 3 2 2 2 1 2 4 4 3 1 1 1 2 3 4 4 4 7 8 6 7 9 6 6 8 6 5 7 9 11 8 3 1 2 3 3 3 2 2 2 3 3 3 2 3 3 0 1 5 6 6 5 4 3 3 4 3 4 5 10 2 1 3 3 3 5 4 6 8 8 6 5 5 5 6 6
2 2 2 16 36 28 8 4 6 6 5 4 5 7 5 3 4 6 6 8 6 3 2 2 2 3 3 3 5 8 10 7 8 11 8 5 5 4 6 10 11 9 6 2 3 5 4 4 5 2 2 3 3 2 1 2 1 2 3 4 7 10 7 2 1 3 2 8 9 6 9 9 2 2 3 2 3 6 7 6 7 7 6 4 5 5 6 7
2 2 1 10 23 17 5 4 6 6 6 5 5 9 8 5 5 7 6 6 5 4 3 2 1 2 2 3 4 6 10 9 7 8 7 5 3 2 3 10 12 10 6 2 3 6 5 4 6 7 6 8 7 6 4 3 3 2 5 7 9 10 11 6 2 3 7 8 8 8 13 7 3 5 5 4 4 6 9 7 6 7 6 5 5 5 6 6
3 2 1 4 7 6 3 4 7 6 6 6 4 5 11 10 4 5 6 4 4 6 5 1 1 2 1 3 4 5 8 9 5 3 5 5 3 2 2 7 10 10 7 6 5 5 3 2 7 10 11 13 13 8 4 8 7 6 9 11 12 13 13 9 5 7 8 3 4 14 17 11 8 6 5 6 6 7 9 8 6 6 7 7 6 5 5 6
4 4 4 4 2 3 4 3 7 8 8 8 5 3 11 13 5 3 6 7 5 6 5 2 2 5 5 6 6 5 5 6 5 4 5 4 2 2 1 3 5 7 5 5 4 5 3 3 8 11 13 15 15 10 8 10 10 13 14 14 14 14 13 12 13 14 8 4 10 18 11 11 18 10 6 9 7 7 10 9 7 7 7 7 5 5 6 7
3 3 4 6 4 4 6 7 9 10 9 9 5 2 7 11 8 5 7 7 5 5 5 3 7 12 13 11 8 5 4 5 5 7 6 3 2 0 1 1 3 4 5 4 3 4 4 5 8 10 12 15 15 9 8 9 8 9 13 15 16 16 17 19 22 20 11 8 19 15 9 14 23 14 11 11 9 10 12 9 7 5 5 5 5 6 7 7
2 2 2 4 5 5 7 11 12 12 11 9 6 4 5 9 12 10 5 4 4 7 8 8 13 16 14 11 8 6 6 6 7 8 7 5 5 4 3 3 2 2 5 3 2 2 4 7 9 8 8 15 18 10 7 9 5 4 9 13 15 18 23 25 25 22 16 17 23 16 8 17 20 10 11 11 11 11 8 4 6 7 6 6 6 7 8 9
1 1 2 2 4 4 4 7 10 11 10 9 8 8 7 9 13 10 6 7 7 8 10 14 17 14 13 13 11 10 12 11 13 12 8 8 7 5 5 4 2 2 3 4 2 1 3 6 6 4 4 13 18 11 6 7 6 6 8 11 14 19 23 23 20 17 15 19 23 16 14 21 14 6 9 10 10 10 8 6 9 9 8 8 8 9 9 10
2 1 1 1 3 4 4 4 7 9 9 9 9 9 9 13 15 11 7 8 9 7 10 18 20 11 9 12 12 14 18 15 14 9 5 7 7 3 4 4 5 4 3 3 2 2 3 3 1 4 5 13 17 12 6 5 3 6 11 15 21 19 15 14 15 15 15 18 19 14 14 20 9 7 8 10 9 10 12 12 10 8 9 10 10 11 11 11
4 1 2 1 2 3 4 4 7 8 7 8 11 12 12 14 14 11 6 5 10 12 12 16 17 8 6 10 14 18 18 13 10 5 4 4 2 3 2 4 6 6 6 4 1 2 5 4 2 5 7 12 12 7 6 5 1 8 15 22 23 16 9 10 14 17 18 17 14 12 17 21 10 6 7 8 8 11 13 12 11 11 11 10 11 11 11 12
Wind_Direction
174 208 220 211 215 215 206 203 194 200 216 225 224 225 228 228 231 231 230 226 224 229 228 239 262 280 300 316 328 337 334 315 236 230 212 86 81 84 53 35 20 13 19 14 22 83 7 19 16 31 76 45 13 343 14 26 52 56 80 92 132 173 195 184 177 191 171 191 210 229 167 136 182 235 158 114 33 45 24 2 334 323 330 210 276 297 147 150
182 209 215 204 210 204 205 204 200 211 216 223 225 225 231 230 232 232 228 224 223 227 232 241 261 276 298 316 325 342 335 313 205 212 192 162 130 83 52 29 17 11 17 31 34 48 62 354 349 32 56 42 351 347 27 9 54 84 107 95 188 195 198 187 175 186 170 159 178 194 157 149 186 173 123 216 332 16 44 302 347 335 297 252 26 119 148 153
184 201 199 193 203 196 202 198 198 222 221 222 226 226 231 233 233 233 229 224 221 224 235 243 259 279 301 310 324 342 326 88 73 195 170 157 146 82 46 23 14 13 21 34 30 36 75 113 25 58 58 52 2 0 35 6 30 123 107 90 218 208 215 207 182 191 205 159 147 164 152 161 230 171 116 191 167 1 220 231 227 269 249 226 229 131 149 160
184 195 200 201 196 187 200 200 199 209 214 226 224 222 226 230 230 231 229 222 221 223 232 242 261 280 298 309 329 330 334 85 47 187 153 157 146 77 34 18 12 16 21 27 28 38 77 99 68 64 69 45 341 17 44 346 0 101 99 144 205 178 180 209 194 197 199 164 143 141 122 165 248 169 140 148 144 276 245 224 199 213 216 199 210 164 157 163
189 192 200 204 197 192 203 206 206 192 192 225 221 218 221 226 228 228 225 219 219 219 228 240 257 282 295 313 320 308 24 74 237 176 152 171 150 68 19 11 7 14 19 18 21 55 70 74 60 48 57 46 348 28 36 319 59 71 54 184 190 146 121 189 184 179 157 125 107 117 140 183 174 131 155 156 190 240 230 230 213 214 200 180 178 166 160 160
192 195 199 202 200 207 211 202 206 203 204 219 218 219 218 221 223 223 220 217 216 215 224 231 245 279 290 320 318 317 74 101 260 179 172 181 160 18 12 5 5 10 12 25 25 60 58 43 55 47 51 55 10 51 16 310 42 93 19 298 209 189 138 114 160 174 136 114 132 154 177 129 98 275 200 174 219 226 228 253 233 232 191 162 153 153 156 160
192 194 195 197 202 212 219 209 209 211 210 212 214 215 215 219 218 220 218 213 215 210 217 225 244 268 295 324 321 30 83 244 274 181 186 183 182 320 11 2 9 8 14 42 31 68 72 47 70 116 79 67 147 91 348 317 36 88 96 304 215 197 267 337 95 153 127 123 183 179 122 124 170 232 67 213 242 243 276 281 194 175 150 144 141 149 157 159
192 191 191 191 197 206 217 220 217 211 209 213 212 206 206 213 214 214 213 213 211 206 215 222 251 268 315 279 119 39 16 271 255 183 187 186 196 321 2 8 25 25 45 43 29 111 90 60 110 151 80 76 160 110 341 358 37 65 133 218 144 199 282 320 71 102 112 115 147 114 136 236 200 190 300 244 250 270 76 83 108 121 124 135 140 148 153 152
192 191 191 190 194 208 215 218 219 209 205 208 206 203 201 200 204 206 204 209 200 197 207 205 255 284 232 111 91 68 273 291 264 188 183 189 196 336 352 21 34 36 53 42 36 93 97 122 180 170 136 149 129 87 346 59 53 133 137 170 94 358 325 348 76 55 15 334 77 122 257 289 283 265 276 252 227 155 102 88 100 120 124 139 142 151 155 153
193 192 192 193 195 208 217 220 229 211 200 202 199 197 194 192 195 196 195 199 190 186 189 188 198 110 170 125 86 112 270 339 280 194 180 189 188 354 9 32 36 46 61 48 48 58 74 169 180 143 134 120 98 69 355 89 140 144 111 106 77 343 328 41 54 357 8 310 156 179 248 295 337 334 261 262 179 143 108 100 110 129 144 154 144 159 162 164
192 195 198 202 199 199 203 226 243 226 208 204 198 191 187 187 188 188 188 185 178 170 167 172 159 148 149 105 110 194 275 6 236 188 180 187 174 30 33 37 37 54 63 57 55 47 66 144 142 121 116 95 96 39 2 104 110 102 116 117 8 342 319 67 17 317 65 242 182 169 238 303 354 265 237 252 174 154 127 139 155 144 163 166 157 164 170 180
191 196 202 204 204 205 203 221 229 233 229 182 178 180 173 180 181 182 179 172 170 162 164 163 156 170 110 69 138 211 260 20 190 176 181 186 149 80 56 46 41 52 66 72 62 45 68 132 112 87 43 133 115 33 93 104 86 84 93 128 324 356 359 273 335 275 172 189 174 151 287 289 237 226 246 254 148 130 127 161 190 184 197 192 181 181 189 195
194 195 202 202 206 214 212 224 228 248 264 179 154 164 166 180 178 179 173 168 168 161 164 163 159 154 110 53 227 214 224 25 172 170 169 171 141 100 74 65 57 58 72 83 71 53 71 131 100 98 118 106 116 187 106 56 53 297 41 80 335 2 342 294 42 51 157 164 159 144 270 273 246 246 262 230 147 130 144 194 209 210 221 216 205 200 211 209
200 198 201 202 206 210 215 231 233 242 251 230 184 166 174 172 170 174 166 164 165 160 160 149 148 132 106 231 247 230 230 201 161 171 163 164 144 112 90 76 73 72 73 77 71 58 70 103 94 94 89 83 125 98 43 13 25 21 8 47 29 17 283 294 3 129 149 171 92 121 239 269 267 270 286 209 167 154 185 212 213 219 226 219 221 213 223 222
209 204 200 203 206 206 224 248 239 232 189 114 297 193 177 160 161 161 153 160 155 148 145 135 145 122 77 285 266 261 235 193 169 172 159 160 148 119 98 92 87 81 75 73 75 65 62 82 79 72 13 17 65 67 29 358 18 32 356 315 354 142 271 304 291 158 146 341 64 116 230 273 272 278 304 213 175 175 205 221 219 223 225 219 226 218 226 237
210 207 197 194 198 199 233 1 45 62 58 14 348 160 157 147 146 143 141 141 134 135 130 119 129 115 91 277 262 283 236 172 167 165 155 158 155 131 113 105 86 79 84 75 76 68 47 53 64 62 119 49 66 81 48 18 355 357 62 239 276 165 284 316 314 228 194 71 28 148 231 279 278 288 329 131 172 187 221 239 231 225 225 219 221 218 222 234
212 209 191 168 170 184 209 54 66 72 34 34 121 134 135 129 129 131 127 122 120 119 117 124 119 102 107 237 240 271 207 153 162 159 151 142 140 138 123 99 76 79 83 67 63 50 28 39 77 18 49 56 77 90 56 359 303 322 22 218 240 198 228 298 311 296 38 107 221 218 230 256 265 281 320 177 177 190 223 239 235 227 228 222 218 218 218 219
213 210 201 173 179 206 225 173 110 116 52 113 135 126 118 116 121 127 128 123 110 88 87 109 94 79 265 232 192 220 135 142 151 149 143 130 126 133 122 94 90 79 56 38 37 34 15 26 63 46 29 16 49 92 120 226 212 202 187 166 251 240 217 254 281 267 106 105 224 217 247 258 269 276 260 211 184 194 225 240 243 236 229 224 221 218 216 218
209 205 199 197 202 213 225 204 168 199 144 132 137 124 110 106 108 121 130 128 123 110 147 203 138 136 214 236 161 110 106 125 141 146 137 128 124 115 101 87 86 77 69 45 3 18 43 47 54 79 223 237 188 163 182 199 165 159 176 149 172 221 248 238 250 263 215 172 237 227 238 253 264 274 266 228 184 207 240 253 254 245 232 226 222 220 216 219
208 205 198 199 205 211 217 219 222 213 174 152 148 129 113 105 81 63 254 215 194 154 132 217 180 138 148 309 126 118 110 106 119 147 141 139 133 110 76 45 47 49 82 154 257 12 78 86 173 216 211 208 203 186 159 152 123 114 126 127 163 199 270 256 251 291 253 174 252 237 239 257 259 269 273 243 173 218 248 252 250 240 232 228 220 221 218 219
210 207 203 202 205 208 207 222 239 216 187 169 163 146 154 157 113 216 244 270 251 199 103 1 121 126 81 139 154 142 119 71 48 134 150 152 141 130 42 23 72 46 309 175 155 26 72 127 229 228 205 196 188 152 119 106 90 92 126 137 234 212 253 258 238 309 317 178 267 283 267 263 257 264 274 262 203 226 234 237 243 236 232 231 221 223 218 205
215 213 209 202 203 205 202 221 247 220 191 178 176 167 183 160 117 111 142 227 269 228 171 123 20 280 270 142 175 163 80 77 66 215 168 148 134 163 166 66 122 177 279 119 101 28 50 225 243 225 147 105 81 113 118 107 94 84 110 131 261 249 265 282 304 337 357 180 271 323 305 267 255 258 264 254 236 236 232 230 239 236 231 230 222 221 209 192
217 216 212 205 201 201 208 224 225 214 192 183 186 171 144 138 114 83 95 104 295 272 173 192 220 229 225 235 197 176 103 152 166 230 187 149 118 174 135 110 138 139 135 171 156 135 162 250 251 184 136 109 70 87 109 102 97 117 133 147 241 259 267 284 304 335 6 135 280 317 301 273 256 250 253 252 247 254 251 243 249 239 230 233 225 213 203 196
215 214 212 207 201 199 210 217 202 203 198 193 199 183 144 134 131 108 75 57 301 292 233 207 202 191 191 197 183 170 162 185 164 198 186 155 124 153 149 144 128 121 190 193 166 176 219 246 231 120 139 130 105 111 129 136 233 247 183 175 210 226 217 237 290 323 346 15 19 345 305 281 255 246 255 273 307 283 262 253 259 247 235 246 238 212 204 198
210 210 210 202 198 199 199 198 196 197 193 196 205 183 148 141 139 129 97 42 304 295 308 222 203 203 195 162 162 165 118 233 215 191 178 162 141 140 158 142 122 174 205 169 151 218 249 237 120 105 117 119 123 161 180 168 205 286 230 203 213 211 213 251 353 9 1 336 347 19 318 285 288 261 260 289 320 280 267 247 255 253 240 238 234 219 200 196
206 206 206 198 195 189 180 193 205 189 176 204 201 173 152 147 135 127 104 45 293 271 288 181 176 192 187 154 150 140 70 262 255 155 164 168 153 117 137 144 75 195 189 143 152 230 243 223 101 118 135 134 140 206 227 175 143 300 254 209 209 181 169 208 92 54 304 267 295 56 75 281 293 249 243 275 290 279 284 266 257 257 237 224 226 218 195 191
204 201 195 195 193 180 169 176 181 170 168 218 187 169 160 150 141 132 89 25 286 210 149 190 193 164 172 168 155 134 180 240 102 116 158 170 170 74 123 170 111 193 171 123 218 249 177 159 95 117 116 129 160 225 226 161 132 248 250 157 156 157 174 182 149 169 236 268 309 54 113 270 285 257 249 297 303 289 284 268 261 253 230 228 224 214 200 193
208 203 190 191 194 185 176 154 162 167 187 178 167 167 162 151 153 121 90 268 279 141 133 232 152 122 128 160 150 120 211 209 113 192 229 135 170 52 120 192 172 180 175 143 209 264 160 176 185 161 131 160 193 223 194 153 142 249 202 119 129 143 152 131 120 148 1 352 301 252 127 226 273 265 297 341 287 267 267 261 262 257 235 233 228 218 203 193
213 208 197 190 193 194 197 184 176 182 183 156 159 165 158 152 157 75 80 204 257 91 112 118 124 65 65 134 155 54 40 26 112 230 9 104 151 54 150 198 148 153 188 163 201 255 152 198 196 161 158 197 202 273 189 160 168 199 127 95 80 80 81 83 97 106 53 330 252 198 161 216 270 247 235 4 227 242 257 264 269 264 252 243 233 221 197 181
216 211 204 189 187 195 201 228 205 182 161 159 160 159 151 143 132 96 146 225 217 116 75 115 153 153 135 146 213 348 65 17 352 93 46 96 27 32 125 156 90 117 207 341 235 250 305 267 206 155 170 184 133 73 53 125 141 143 110 72 55 38 39 52 47 78 66 282 253 202 184 192 270 262 198 209 220 227 249 283 294 286 277 260 235 211 186 176
219 213 205 191 190 192 190 230 211 178 156 162 157 149 140 96 70 147 200 233 39 161 126 123 186 136 150 158 179 202 105 26 191 145 137 160 69 48 90 114 79 78 358 294 279 307 333 328 247 219 161 128 99 70 29 52 107 110 90 83 72 353 9 25 356 47 119 255 264 254 202 184 240 257 239 250 260 240 227 253 272 273 274 263 236 205 184 177
223 218 208 198 199 196 190 213 197 174 157 158 152 140 129 92 101 208 220 116 31 210 155 159 204 164 163 163 165 171 139 77 194 166 153 152 165 178 185 183 162 104 261 235 248 333 279 236 255 315 179 140 114 83 34 15 29 81 100 108 95 341 351 349 311 64 222 252 272 322 339 218 241 252 263 267 266 251 225 225 239 245 255 259 235 203 181 169
225 220 210 202 203 202 200 204 182 169 158 158 152 101 96 147 206 216 219 201 219 245 122 117 132 152 155 155 175 172 139 166 187 176 148 141 172 208 236 219 172 139 196 193 170 198 266 293 278 147 253 191 158 156 155 194 191 155 146 139 132 131 122 274 274 272 265 267 295 304 243 248 268 264 248 248 253 253 233 225 232 238 248 257 235 191 175 176
229 220 209 204 207 210 207 202 178 168 162 159 151 95 138 192 218 208 213 218 233 12 47 97 97 113 150 165 208 178 152 211 176 148 139 139 167 213 234 234 205 136 106 143 165 182 214 277 214 174 209 190 182 190 162 140 159 186 161 139 157 162 166 214 225 227 258 282 308 297 230 200 218 256 246 242 260 275 258 241 241 249 253 254 225 171 175 189
234 220 210 201 204 212 210 203 183 172 167 158 150 157 176 206 222 214 210 197 145 39 27 56 96 117 185 280 293 194 157 203 167 131 158 169 186 204 198 211 204 166 134 172 208 163 199 260 248 235 277 170 181 206 108 111 140 217 130 114 186 189 157 176 202 180 192 314 301 247 226 217 215 267 267 251 270 281 273 273 261 259 256 202 197 189 189 201
236 221 210 196 198 206 207 203 186 174 169 147 158 180 194 206 206 205 194 156 155 140 105 66 81 126 199 239 274 225 165 113 146 144 204 205 227 211 201 213 198 184 180 178 186 141 171 272 302 341 353 137 184 226 99 132 182 161 136 176 212 174 123 118 241 54 73 273 269 209 248 290 313 280 269 247 259 275 286 284 258 257 258 186 214 210 201 208
239 224 210 198 200 202 202 200 185 175 169 148 180 194 206 213 191 152 167 140 142 139 130 174 184 153 183 188 199 206 186 101 153 174 200 196 251 212 201 229 197 193 199 170 180 200 160 246 317 34 158 300 304 132 67 32 120 126 180 205 176 97 88 105 225 349 44 248 272 248 249 284 291 274 303 52 242 259 268 262 256 263 247 221 228 216 212 213
239 227 215 210 205 200 198 194 182 175 167 158 195 211 218 223 189 115 150 123 122 143 159 201 199 162 175 186 196 185 173 176 173 185 187 187 247 208 179 208 210 199 203 158 188 239 146 218 309 28 193 302 358 114 89 3 61 128 185 183 122 142 199 114 164 223 169 246 282 294 266 255 213 229 276 185 216 235 245 248 256 259 239 231 232 215 216 212
227 225 236 215 206 199 193 188 180 175 171 173 195 210 214 217 201 104 158 137 131 161 186 203 186 149 176 176 167 167 182 188 168 177 189 185 235 214 174 192 208 196 192 167 183 223 125 200 270 327 260 312 10 158 181 201 32 52 87 134 97 129 174 159 155 169 173 226 280 312 299 256 219 201 197 208 212 215 227 234 241 249 241 223 219 213 209 205
204 226 268 202 202 198 188 184 181 179 179 186 200 207 214 210 195 277 227 158 138 177 190 199 172 164 180 170 156 171 187 189 171 184 204 189 219 245 193 183 164 165 177 177 191 177 103 197 237 302 322 198 194 213 192 182 171 157 160 170 180 116 116 158 156 130 137 168 219 282 285 266 241 183 191 209 212 205 212 220 224 244 254 227 210 209 204 203
173 232 240 183 191 187 179 181 196 180 174 201 218 226 263 197 128 250 253 60 25 250 159 164 174 174 166 162 183 180 165 175 182 190 223 210 209 238 214 177 153 140 139 171 201 195 163 183 184 200 245 203 220 247 213 195 180 176 189 192 187 164 127 144 244 217 130 173 191 181 269 269 244 182 197 202 212 208 203 224 238 243 248 237 217 204 203 203
179 230 190 173 178 172 167 191 207 170 181 207 204 211 232 210 128 248 251 60 25 318 64 135 170 173 166 170 179 161 155 174 187 190 224 222 209 218 224 179 154 150 143 162 206 192 140 119 141 193 220 219 237 268 200 197 132 119 195 202 163 143 136 155 211 227 154 219 199 120 266 272 244 180 210 197 221 233 190 207 248 251 239 239 232 210 206 209
208 229 114 170 174 165 161 206 189 183 219 188 181 191 192 227 199 190 218 211 200 195 212 235 180 180 193 172 151 163 174 184 191 199 218 226 222 219 189 156 145 150 152 154 217 159 113 128 180 245 297 308 314 351 37 51 90 107 273 175 162 188 190 170 191 184 153 209 194 124 254 265 258 176 243 218 241 273 245 208 230 253 257 237 227 213 201 206
208 205 64 175 177 170 168 199 182 207 210 160 188 202 199 245 209 187 204 211 206 173 169 226 214 195 202 159 153 179 189 192 202 209 210 211 229 227 162 157 154 162 180 186 176 177 173 182 183 191 314 320 318 316 338 13 95 181 221 200 196 197 179 138 95 107 201 220 189 180 245 254 272 327 305 309 286 279 267 236 222 241 252 228 214 209 198 198
167 203 352 183 183 180 191 179 165 203 200 170 199 199 196 222 214 197 201 202 204 186 180 232 222 167 169 162 169 186 196 208 215 207 209 214 239 299 178 174 172 185 199 154 148 174 177 188 180 179 211 230 236 234 217 174 137 204 222 201 203 195 179 188 195 173 232 224 168 199 240 248 321 318 305 300 283 271 262 246 231 240 246 232 213 202 194 191
168 214 203 181 190 198 209 162 156 190 201 188 207 201 200 213 214 186 192 200 207 194 194 234 151 160 165 168 185 199 213 227 225 183 206 217 225 304 218 186 192 200 178 119 128 153 143 223 204 198 212 221 232 237 175 135 147 204 216 197 199 203 193 195 208 210 220 186 173 226 236 250 273 277 281 271 250 255 261 248 239 247 246 236 217 196 190 191
198 208 179 167 195 211 208 173 163 186 199 193 194 182 198 212 217 166 197 211 199 184 197 215 177 201 210 193 200 210 210 219 214 195 206 208 225 310 320 177 220 221 168 137 153 136 116 233 221 220 228 231 240 238 171 154 178 200 204 199 200 203 193 193 215 220 189 136 243 241 221 243 256 239 228 250 239 243 255 242 234 239 232 223 197 178 193 196
220 206 181 172 179 199 203 196 182 186 192 189 190 176 195 209 209 192 202 206 183 173 188 207 209 213 213 204 205 208 185 194 218 219 212 191 164 286 283 212 234 205 147 160 198 138 145 221 223 225 238 246 254 244 178 182 203 197 200 204 201 196 194 202 217 220 186 187 246 243 169 219 248 234 211 226 220 227 237 226 222 228 211 190 169 178 200 200
264 277 238 189 195 205 200 195 190 193 191 176 184 206 193 203 210 209 195 160 182 198 191 208 220 215 216 215 207 209 199 191 220 224 204 189 177 162 201 231 221 159 131 155 220 138 167 221 222 214 234 252 255 244 182 193 216 207 210 213 205 199 201 208 217 219 208 220 243 246 217 241 251 225 201 214 216 230 239 206 213 229 214 192 184 199 208 204
223 261 290 251 221 199 184 186 187 200 199 178 191 210 197 202 210 210 193 171 192 199 190 215 226 210 208 218 212 223 224 210 223 227 198 196 204 184 202 210 146 124 156 167 192 190 199 218 211 181 225 255 253 244 196 189 207 230 235 226 219 213 210 212 217 218 216 231 243 249 259 264 257 171 178 210 219 242 260 236 226 232 224 206 200 212 216 213
202 93 95 306 255 192 171 170 176 199 207 189 199 207 202 213 210 202 207 200 200 195 187 215 228 212 202 214 210 227 234 224 228 231 184 198 218 200 213 195 118 127 180 175 157 158 192 213 162 141 210 250 250 236 203 169 190 255 255 238 227 221 214 213 217 214 209 223 239 244 251 257 246 139 171 205 205 227 244 239 234 232 221 209 208 217 218 218
193 85 124 149 284 226 193 176 177 199 206 192 204 206 206 219 209 191 206 218 211 212 204 214 224 211 199 213 212 225 234 231 233 225 141 178 192 96 146 164 138 146 160 162 151 150 173 189 183 170 211 250 251 211 159 130 167 251 248 240 231 219 203 211 221 221 212 211 221 226 236 246 237 155 188 207 199 219 233 232 232 232 222 212 214 220 220 222